Location: Grand Bréau
(48.6524°N, 2.9452°E)
Time: 05:47:51
(UTC+00:00)

Daily predictions for brighter satellites

Satellite Brightness Start Highest point End
(mag) Time Altitude Azimuth Time Altitude Azimuth Time Altitude Azimuth
ACS3 Solar Sail 4.0 02:22:17 10° NNE 02:24:02 18° NE 02:24:02 18° NE
COSMOS 2428 4.3 03:21:07 28° NNE 03:21:07 28° NNE 03:23:40 10° NNE
CZ-2C R/B 4.0 03:17:46 10° NNE 03:21:32 33° ENE 03:21:32 33° ENE
USA 267 4.0 03:24:10 10° ENE 03:30:21 43° SE 03:31:27 40° SSE
Cosmos 2278 Rocket 4.4 03:37:43 14° SSE 03:37:43 14° SSE 03:38:29 10° SSE
NOSS 3-1 (A) 4.0 03:37:27 43° NE 03:37:27 43° NE 03:41:25 10° NE
Cosmos 2237 Rocket 2.8 03:37:33 53° E 03:37:33 53° E 03:42:22 10° NE
ARGOS 3.8 03:35:52 10° NNE 03:40:21 53° ENE 03:40:21 53° ENE
CENTAUR R/B 4.0 03:39:59 30° NNW 03:43:35 45° NNE 03:52:17 10° ESE
Cosmos 2369 Rocket 4.0 03:41:31 18° N 03:44:23 26° NE 03:49:06 10° E
Cosmos 2360 Rocket 4.4 03:52:38 13° N 03:52:38 13° N 03:53:40 10° N
SJ 16-02 2.8 03:51:38 34° ENE 03:51:38 34° ENE 03:55:01 10° SE
Cosmos 2322 Rocket 4.4 03:57:46 13° N 03:57:46 13° N 03:58:45 10° N
ADEOS Rocket 3.6 03:50:18 10° N 03:55:46 53° NNW 03:55:46 53° NNW
Cosmos 2333 Rocket 4.5 03:59:30 12° N 03:59:30 12° N 04:00:29 10° N
USA 234 3.2 04:01:31 10° ESE 04:08:04 78° NNE 04:09:48 52° NW
ACS3 Solar Sail 2.9 04:05:07 10° N 04:08:08 29° NNW 04:08:08 29° NNW
Cosmos 371 Rocket 3.9 04:11:29 41° NNE 04:12:48 54° ENE 04:17:32 10° SE
CZ-3 R/B 4.3 04:06:00 14° SW 04:15:09 22° S 04:21:23 10° SE
Cosmos 1864 Rocket 4.4 04:10:00 10° NNW 04:16:14 66° W 04:22:30 10° S
Cosmos 2292 Rocket 4.1 04:16:36 36° S 04:18:52 89° E 04:25:18 10° N
Cosmos 304 Rocket 4.0 04:20:02 47° N 04:21:15 66° ENE 04:25:59 10° SSE
Cosmos 2061 Rocket 4.0 04:15:55 10° N 04:22:09 82° E 04:28:20 10° S
Meteor 1-24 Rocket 4.0 04:23:19 50° NNW 04:23:19 50° NNW 04:27:37 10° N
Gbstr 26 Del rocket 3.5 04:22:01 62° NNW 04:22:14 62° N 04:28:05 10° ENE
Lacrosse 5 rocket 3.0 04:23:30 21° NE 04:23:30 21° NE 04:25:25 10° ENE
Cosmos 1656 Rocket 3.8 04:20:09 34° NNW 04:22:43 72° ENE 04:28:22 10° SE
Lacrosse 4 Rocket 4.1 04:22:36 10° NNE 04:23:44 11° NNE 04:24:53 10° NE
Cosmos 2219 Rocket 4.1 04:26:24 16° NNW 04:26:24 16° NNW 04:28:25 10° N
Cosmos 1725 Rocket 4.0 04:24:15 10° NNW 04:30:26 58° W 04:36:34 10° S
Cosmos 1869 3.7 04:31:07 51° ESE 04:31:07 51° ESE 04:34:12 10° SSE
Cosmos 2233 Rocket 3.9 04:26:26 10° NNW 04:32:46 78° W 04:38:59 10° S
Cosmos 2251 Rocket 3.5 04:36:55 56° W 04:37:04 56° WSW 04:42:17 10° S
Helios 1A Rocket 3.6 04:34:26 10° SE 04:37:37 42° ENE 04:38:59 27° NNE
Meteor 2-21 Rocket 4.5 04:36:39 46° WSW 04:37:48 52° WNW 04:43:44 10° N
NOSS 3-1 (C) 4.1 04:37:44 30° NNW 04:37:54 30° NNW 04:43:20 10° NE
Cosmos 1420 Rocket 3.9 04:37:58 42° SW 04:39:43 72° WNW 04:45:03 10° NNE
Cosmos 1624 Rocket 4.1 04:34:44 10° SSW 04:39:52 72° ESE 04:45:03 10° NNE
SL-16 R/B 2.9 04:34:40 10° S 04:40:10 54° ESE 04:45:43 10° NE
H-2A R/B 4.2 04:37:30 10° N 04:37:38 11° NNW 04:37:38 11° NNW
Cosmos 2242 Rocket 4.2 04:37:48 10° S 04:42:06 57° E 04:46:27 10° NNE
PAYLOAD A 4.0 04:38:04 10° N 04:43:22 60° WNW 04:45:44 31° SW
SL-08 RB Rocket 4.0 04:40:23 10° N 04:44:00 46° NW 04:44:00 46° NW
Cosmos 1812 2.9 04:46:27 48° E 04:46:27 48° E 04:49:03 10° SSE
NOSS 0 Rocket 4.4 04:48:18 37° WNW 04:48:59 38° NW 04:54:44 10° NNE
Cosmos 2346 Rocket 4.4 04:45:03 10° S 04:51:11 88° E 04:57:18 10° N
Cosmos 1802 Rocket 4.4 04:46:07 10° NNW 04:51:50 37° W 04:57:26 10° SSW
CZ-2C R/B 3.0 04:55:51 10° N 05:00:28 36° WNW 05:00:45 36° WNW
Cosmos 1939 Rocket 3.1 04:57:58 10° N 05:01:05 43° NW 05:01:05 43° NW
COSMOS 2428 4.0 05:03:07 21° NW 05:03:07 21° NW 05:07:18 10° N
Meteor 2-5 Rocket 4.3 05:02:08 33° W 05:03:00 34° WNW 05:08:15 10° N
Cosmos 1980 4.3 05:04:29 32° WNW 05:05:37 35° NW 05:10:48 10° NNE
SJ-11-01 4.2 05:02:12 10° N 05:06:53 68° WNW 05:11:32 10° SSW
USA 229 DEB 3.8 05:05:39 10° SSW 05:11:28 65° SE 05:18:03 10° NE
USA 229 3.9 05:05:52 10° SSW 05:11:42 65° SE 05:18:16 10° NE
Cosmos 2263 4.5 05:06:25 10° NNW 05:12:14 72° ENE 05:17:59 10° SE
NOSS 3-2 (A) 4.5 05:06:31 14° NW 05:12:39 57° NE 05:21:04 10° ESE
USA 267 3.2 05:07:08 10° NE 05:13:40 75° NNW 05:18:49 17° WSW
Cosmos 676 Rocket 4.2 05:14:56 19° NW 05:18:25 47° WSW 05:23:22 10° S
ARGOS 4.1 05:16:47 10° N 05:21:05 25° WNW 05:21:49 24° WNW
Cosmos 2237 Rocket 3.0 05:19:25 25° W 05:21:13 30° NW 05:26:10 10° NNE
Cosmos 2297 3.6 05:17:57 11° NNW 05:23:28 79° WSW 05:29:05 10° SSE
Okean 2 Rocket 3.4 05:19:16 10° N 05:23:38 68° ENE 05:27:59 10° SSE
Aureole 3 4.2 05:19:47 10° SSW 05:25:27 51° WNW 05:30:13 10° N
NOSS 3-1 (A) 4.1 05:24:50 22° WNW 05:27:06 31° NNW 05:32:35 10° NE
Cosmos 2056 Rocket 3.8 05:23:29 10° SW 05:28:42 48° WNW 05:33:56 10° NNE
Cosmos 2369 Rocket 2.2 05:23:19 10° NNW 05:28:55 70° WSW 05:34:35 10° SSE
SJ 16-02 2.2 05:28:15 25° W 05:29:04 26° W 05:32:39 10° SSW
SKYMED 2 3.9 05:26:02 10° S 05:30:10 43° W 05:34:20 10° NNW
Cosmos 1513 Rocket 4.5 05:24:41 10° NNW 05:31:03 68° W 05:37:17 10° S
Cosmos 1943 4.2 05:25:44 10° S 05:31:06 50° ESE 05:36:30 10° NE
ATLAS 3B R/B 3.0 05:25:14 10° SW 05:32:48 88° SE 05:40:45 10° NE
CENTAUR R/B 3.3 05:27:05 12° NW 05:34:59 76° SW 05:44:23 10° SSE
COSMO-SKYMED 1 2.6 05:31:26 10° S 05:35:26 51° W 05:39:29 10° NNW
IRS-1D 3.6 05:33:18 10° N 05:38:02 47° WNW 05:42:44 10° SW
USA 306 2.8 05:41:00 23° WNW 05:42:48 45° NNW 05:46:34 10° ENE
BREEZE-M DEB (TANK) 3.8 05:41:09 10° SW 05:43:34 31° SSE 05:47:49 10° E
BREEZE-M DEB (TANK) 4.2 05:34:53 14° W 05:44:09 69° S 05:48:01 10° ESE
DMSP B5D1-3 4.5 05:39:38 10° SSE 05:44:45 85° WSW 05:49:54 10° NNW
Cosmos 1025 Rocket 3.1 05:40:27 10° S 05:44:48 84° E 05:49:12 10° N
Cosmos 1674 Rocket 3.5 05:45:30 10° SSW 05:49:53 64° WNW 05:54:17 10° N
Cosmos 968 Rocket 3.7 05:46:03 10° NNW 05:51:07 49° WSW 05:56:08 10° S
USA 234 3.9 05:45:20 10° SSE 05:51:25 40° SW 05:57:08 12° WNW
Cosmos 1741 Rocket 4.1 05:48:56 10° NNW 05:54:12 63° WSW 05:59:25 10° S
Meteor 1-21 Rocket 4.5 05:51:19 10° SW 05:56:50 47° WNW 06:02:15 10° N
CZ-4 R/B 4.4 05:52:53 10° N 05:57:16 35° WNW 06:01:33 10° SW
Cosmos 1400 Rocket 3.3 05:54:47 10° NNW 05:58:08 33° W 06:01:26 10° SSW
Cosmos 1484 Rocket 2.5 05:55:39 10° N 05:59:10 58° WNW 06:02:38 10° SSW
NOSS 2-2 (E) 3.9 05:56:20 10° NW 06:00:00 59° NE 06:04:59 10° SE
Cosmos 2221 Rocket 3.6 05:55:32 10° SSW 06:00:03 77° W 06:04:37 10° N
Lacrosse 5 rocket 0.8 05:57:09 13° NW 06:00:05 77° NNE 06:03:23 10° ESE
Lacrosse 4 Rocket 2.0 05:58:40 10° NNW 06:02:34 51° NE 06:06:23 10° SE
Cosmos 1110 Rocket 4.1 05:59:14 10° SW 06:04:26 59° WNW 06:09:43 10° NNE
Cosmos 2151 Rocket 4.2 06:01:49 10° NNW 06:05:56 36° W 06:10:00 10° SSW
Cosmos 1455 Rocket 3.3 06:02:03 10° N 06:06:24 76° E 06:10:45 10° SSE
Cosmos 1302 Rocket 4.5 06:03:01 10° S 06:08:07 67° ESE 06:13:17 10° NNE
Thor Agena Rocket 3.8 06:02:57 10° NNE 06:08:11 77° ESE 06:13:19 10° S
Gbstr 26 Del rocket 3.8 06:04:03 11° WNW 06:09:10 80° NNE 06:15:45 10° ESE
Helios 1A Rocket 4.2 06:08:40 10° SW 06:10:31 14° W 06:12:23 10° WNW
Meteor 2-17 Rocket 4.5 06:05:02 10° SSW 06:11:02 63° WNW 06:17:07 10° N
Sich 1 Rocket 3.9 06:08:55 10° NNW 06:13:15 46° W 06:17:32 10° SSW
Cosmos 1818 4.4 06:09:37 10° SSW 06:14:55 58° ESE 06:20:16 10° NE
Cosmos 1378 Rocket 4.5 06:14:15 10° SW 06:17:48 25° WNW 06:21:22 10° NNW
Cosmos 332 Rocket 4.4 06:17:15 10° NW 06:21:39 37° WSW 06:26:00 10° S
Okean 1 Rocket 3.6 06:19:38 10° NNW 06:23:36 36° W 06:27:31 10° SSW
SL-16 R/B 2.9 06:19:30 10° WSW 06:24:33 32° NW 06:29:39 10° NNE
